[Date Prev][Date Next][Thread Prev][Thread Next] - [Date Index][Thread Index][Author Index]

MIR Burns ~ EVA~



 The MIR crew did 2 burns yesterday and maybe one more today
 There is going to be a EVA  on or around the 11th or 12th - more info later
on the EVA"S"


 Hr is todays keps 

Dave
N6CO
MIREX


MIR
1 16609U 86017A   00129.82985995  .00083847  00000-0  86126-3 0  6286
2 16609  51.6507  99.1436 0012231 274.6324  85.3215 15.64094181812966

----
Via the sarex mailing list at AMSAT.ORG courtesy of AMSAT-NA.
To unsubscribe, send "unsubscribe sarex" to Majordomo@amsat.org



AMSAT Top AMSAT Home